sim
Sign-in with your pilot id or email,
or register
Callsign
Passwort

Schedule Details

Flight Number: RYR5082 (1)
Departure: Paphos International Airport (LCPH) at 18:40
Arrival: Thessaloniki International Airport (LGTS) at 20:45
Route: Ryanair Passenger Schedule. Enter filed route here before submitting Pirep.

Weather Information
Getting current METAR information for LCPH 192200Z 01005KT 9999 FEW024 BKN027 13/10 Q1015
Getting current METAR information for LGTS 192150Z 03005KT 9999 FEW020 13/09 Q1023 NOSIG

Schedule Frequency

Route Map